星链-1034 (STARLINK-1034 )

导读 | 豆包AI

STARLINK-1034是美国SpaceX公司星链星座的卫星,于2019年11月11日发射,属于星链计划早期部署批次。星链计划旨在构建全球卫星互联网星座,该卫星承担低轨卫星通信试验与服务任务,运行在近地轨道,为全球偏远地区提供互联网接入服务,推动了全球卫星通信网络的建设进程。

基本信息
目录编号:
44739
目录名称:
STARLINK-1034
国际标识:
2019-074AC
轨道中心:
EARTH
卫星名称:
星链-1034
卫星全名:
星链-1034 (STARLINK-1034 )
卫星状态:
已陨落 最后检测时间 2023-09-11
发射日期:
2019-11-11 UTC
国别 :
美国 (US)
星等 :
--
轨道信息
数据来源 国际轨道数据
星历时间: 2023-09-11T21:00:51+0800
轨道信息已过期961天
半长轴: 6550.833km
偏心率: 0.0019164
轨道倾角: 52.936°
近地点辐角 172.145°
升交点赤经 222.652°
平近点角 213.348°
近地点: 160.143km
远地点: 185.253km
周期: 87.944分钟
每日圈数: 16.374122
详细信息
固有亮度:
5
最大亮度:
2.5
卫星平台:
Starlink V1.0
覆盖范围:
全球
运营商:
太空探索技术公司
运营商所在国:
美国
制造商(研发单位):
太空探索技术公司
制造商所在国:
美国
使用方式:
暂无
卫星简介
星链(Starlink)计划是由太空探索技术公司(SpaceX)提出的一个巨型低轨卫星互联网星座项目,计划在2019年至2024年间在太空搭建由约1.2万颗卫星组成的“星链”网络,其中1584颗将部署在地球上空550千米处的近地轨道,并从2020年开始工作。该卫星已陨落。